64013000, 5301503, 2016-11-08 00:00:00, 13.35740, 109.26760,   0,   9,   3, 26.67, 1013.30, 15.00, 0,   1, 255, 0.000
64013000, 5301503, 2016-11-08 01:00:00, 13.35720, 109.26760,   0,   9,   2, 26.89, 1014.00, 15.00, 1,  19, 255, 0.000
64013000, 5301503, 2016-11-08 02:00:00, 13.35740, 109.26760,   0,   8,   5, 27.10, 1014.40, 15.00, 1,   4, 255, 0.000
64013000, 5301503, 2016-11-08 03:00:00, 13.35740, 109.26760,   0,   9,   2, 27.45, 1013.90, 15.00, 1,   8, 255, 0.000
64013000, 5301503, 2016-11-08 04:00:00, 13.35740, 109.26740,   0,   9,   2, 27.48, 1013.40, 15.00, 0,   8, 255, 0.000
64013000, 5301503, 2016-11-08 05:00:00, 13.35740, 109.26760,   0,   9,   2, 27.96, 1012.70, 15.00, 1,  21, 255, 0.000
64013000, 5301503, 2016-11-08 06:00:00, 13.35740, 109.26760,   0,  10,   2, 28.09, 1011.90, 15.00, 1,   4, 255, 0.000
64013000, 5301503, 2016-11-08 07:00:00, 13.35740, 109.26760,   0,  10,   2, 28.27, 1011.20, 15.00, 0,   9, 255, 0.000
64013000, 5301503, 2016-11-08 08:00:00, 13.35740, 109.26760,   0,   8,   6, 28.34, 1011.10, 15.00, 1,  19, 255, 0.000
64013000, 5301503, 2016-11-08 09:00:00, 13.35740, 109.26760,   0,  10,   2, 28.42, 1011.10, 15.00, 1,   1, 255, 0.000
64013000, 5301503, 2016-11-08 10:00:00, 13.35760, 109.26760,   0,  10,   2, 28.25, 1011.50, 15.00, 1,   4, 255, 0.000
64013000, 5301503, 2016-11-08 11:00:00, 13.35740, 109.26760,   0,   9,   1, 27.87, 1011.90, 15.00, 1,  15, 255, 0.000
64013000, 5301503, 2016-11-08 12:00:00, 13.35740, 109.26760,   0,  10,   2, 27.62, 1012.50, 15.00, 0,   8, 255, 0.000
64013000, 5301503, 2016-11-08 13:00:00, 13.35760, 109.26740,   0,   8,   3, 27.62, 1013.20, 15.00, 0,   9, 255, 0.000
64013000, 5301503, 2016-11-08 14:00:00, 13.35740, 109.26760,   0,   9,   2, 27.62, 1013.30, 15.00, 0,   4, 255, 0.000
64013000, 5301503, 2016-11-08 15:00:00, 13.35740, 109.26740,   0,  10,   3, 27.47, 1013.40, 15.00, 0,  12, 255, 0.000
64013000, 5301503, 2016-11-08 16:00:00, 13.35740, 109.26760,   0,   9,   1, 27.41, 1013.20, 15.00, 1,   1, 255, 0.000
64013000, 5301503, 2016-11-08 17:00:00, 13.35740, 109.26760,   0,  10,   2, 27.32, 1013.00, 15.00, 0,   9, 255, 0.000
64013000, 5301503, 2016-11-08 18:00:00, 13.35740, 109.26760,   0,  10,   3, 27.13, 1012.50, 15.00, 1,   9, 255, 0.000
64013000, 5301503, 2016-11-08 19:00:00, 13.35740, 109.26740,   0,  10,   5, 27.07, 1012.10, 15.00, 1,  10, 255, 0.000
64013000, 5301503, 2016-11-08 20:00:00, 13.35740, 109.26760,   0,   9,   2, 27.08, 1011.70, 15.00, 0,   1, 255, 0.000
64013000, 5301503, 2016-11-08 21:00:00, 13.35740, 109.26740,   0,  10,   2, 26.72, 1011.90, 15.00, 0,   7, 255, 0.000
64013000, 5301503, 2016-11-08 22:00:00, 13.35760, 109.26760,   0,  10,   1, 26.52, 1012.00, 15.00, 0,   8, 255, 0.000
64013000, 5301503, 2016-11-08 23:00:00, 13.35740, 109.26760,   0,   9,   1, 26.46, 1012.90, 15.00, 0,  18, 255, 0.000
64013000, 5301503, 2016-11-09 00:00:00, 13.35740, 109.26740,   0,  10,   1, 26.49, 1013.70, 15.00, 1,   7, 255, 0.000
64013000, 5301503, 2016-11-09 01:00:00, 13.35740, 109.26760,   0,   8,   2, 26.74, 1014.50, 15.00, 0,  10, 255, 0.000
64013000, 5301503, 2016-11-09 02:00:00, 13.35740, 109.26760,   0,   9,   2, 27.05, 1015.00, 15.00, 0,  17, 255, 0.000
64013000, 5301503, 2016-11-09 03:00:00, 13.35740, 109.26760,   0,  10,   1, 27.56, 1014.80, 15.00, 1,   7, 255, 0.000
64013000, 5301503, 2016-11-09 04:00:00, 13.35740, 109.26760,   0,   9,   1, 27.83, 1014.30, 15.00, 1,   4, 255, 0.000
64013000, 5301503, 2016-11-09 05:00:00, 13.35740, 109.26780,   0,   9,   2, 28.07, 1013.70, 15.00, 1,  12, 255, 0.000
64013000, 5301503, 2016-11-09 06:00:00, 13.35740, 109.26760,   0,  10,   1, 28.21, 1012.90, 15.00, 1,   9, 255, 0.000
64013000, 5301503, 2016-11-09 07:00:00, 13.35740, 109.26760,   0,  11,   7, 28.28, 1012.20, 15.00, 1,   9, 255, 0.000
64013000, 5301503, 2016-11-09 08:00:00, 13.35720, 109.26760,   0,   8,   8, 28.44, 1011.80, 15.00, 0,   8, 255, 0.000
64013000, 5301503, 2016-11-09 09:00:00, 13.35740, 109.26760,   0,  10,   3, 28.11, 1012.10, 15.00, 0,  16, 255, 0.000
64013000, 5301503, 2016-11-09 10:00:00, 13.35740, 109.26760,   0,   9,   3, 27.86, 1012.50, 15.00, 0,   4, 255, 0.000
64013000, 5301503, 2016-11-09 11:00:00, 13.35760, 109.26740,   0,  10,   1, 27.38, 1012.80, 15.00, 0,  11, 255, 0.000
64013000, 5301503, 2016-11-09 12:00:00, 13.35760, 109.26760,   0,  10,   2, 27.17, 1013.30, 15.00, 0,  16, 255, 0.000
64013000, 5301503, 2016-11-09 13:00:00, 13.35740, 109.26740,   0,   9,   2, 27.21, 1014.40, 15.00, 0,   8, 255, 0.000
64013000, 5301503, 2016-11-09 14:00:00, 13.35740, 109.26760,   0,  10,   2, 26.97, 1014.70, 15.00, 0,   1, 255, 0.000
64013000, 5301503, 2016-11-09 15:00:00, 13.35760, 109.26740,   0,  10,   3, 27.01, 1014.80, 15.00, 1,  11, 255, 0.000
64013000, 5301503, 2016-11-09 16:00:00, 13.35740, 109.26760,   0,  10,   1, 26.93, 1014.70, 15.00, 1,   8, 255, 0.000
64013000, 5301503, 2016-11-09 17:00:00, 13.35740, 109.26760,   0,  11,   2, 26.93, 1014.30, 15.00, 0,   8, 255, 0.000
64013000, 5301503, 2016-11-09 18:00:00, 13.35740, 109.26760,   0,  10,   2, 26.67, 1013.80, 15.00, 1,   1, 255, 0.000
64013000, 5301503, 2016-11-09 19:00:00, 13.35740, 109.26740,   0,  11,   2, 26.30, 1013.30, 15.00, 0,  10, 255, 0.000
64013000, 5301503, 2016-11-09 20:00:00, 13.35740, 109.26760,   0,   9,   1, 26.22, 1013.00, 15.00, 1,   8, 255, 0.000
64013000, 5301503, 2016-11-09 21:00:00, 13.35740, 109.26760,   0,  10,   1, 26.18, 1013.00, 15.00, 0,   9, 255, 0.000
64013000, 5301503, 2016-11-09 22:00:00, 13.35740, 109.26760,   0,   9,   2, 26.12, 1013.10, 15.00, 0,  28, 255, 0.000
64013000, 5301503, 2016-11-09 23:00:00, 13.35740, 109.26760,   0,  10,   1, 26.07, 1013.80, 15.00, 0,   1, 255, 0.000
64013000, 5301503, 2016-11-10 00:00:00, 13.35760, 109.26740,   0,   9,   3, 26.06, 1014.70, 15.00, 0,   7, 255, 0.000
64013000, 5301503, 2016-11-10 01:00:00, 13.35740, 109.26760,   0,   9,   2, 26.29, 1015.60, 15.00, 1,   8, 255, 0.000
64013000, 5301503, 2016-11-10 02:00:00, 13.35800, 109.26700,   0,  11,   1, 26.60, 1016.50, 15.00, 2,   8, 255, 0.000
64013000, 5301503, 2016-11-10 03:00:00, 13.35740, 109.26700,   0,  10,   1, 25.33, 1015.80, 15.00, 1,   1, 255, 0.000
64013000, 5301503, 2016-11-10 04:00:00, 13.35740, 109.26720,   0,  11,   1, 26.55, 1015.10, 15.00, 0,  10, 255, 0.000
64013000, 5301503, 2016-11-10 05:00:00, 13.35740, 109.26720,   0,  11,   2, 27.93, 1014.30, 15.00, 1,  20, 255, 0.000
64013000, 5301503, 2016-11-10 06:00:00, 13.35720, 109.26720,   0,  11,   8, 28.13, 1013.00, 15.00, 0,   1, 255, 0.000
64013000, 5301503, 2016-11-10 07:00:00, 13.35740, 109.26720,   0,   9,   1, 28.48, 1012.40, 15.00, 2,  11, 255, 0.000
64013000, 5301503, 2016-11-10 08:00:00, 13.35740, 109.26720,  63,   9,  12, 28.22, 1012.00, 15.00, 0,   4, 255, 0.000
64013000, 5301503, 2016-11-10 09:00:00, 13.35740, 109.26720,   0,   9,   4, 27.80, 1011.80, 15.00, 0,  15, 255, 0.000
64013000, 5301503, 2016-11-10 10:00:00, 13.35740, 109.26720,   0,  10,   2, 27.25, 1011.80, 15.00, 1,   9, 255, 0.000
64013000, 5301503, 2016-11-10 11:00:00, 13.35740, 109.26720,   0,   7,   4, 27.03, 1012.30, 15.00, 0,   4, 255, 0.000
64013000, 5301503, 2016-11-10 12:00:00, 13.35740, 109.26720,   0,  10,   3, 26.89, 1013.10, 15.00, 0,  25, 255, 0.000
64013000, 5301503, 2016-11-10 13:00:00, 13.35740, 109.26720,   0,  10,   5, 26.32, 1013.80, 15.00, 0,   1, 255, 0.000
64013000, 5301503, 2016-11-10 14:00:00, 13.35740, 109.26720,   0,  10,   2, 26.37, 1014.30, 15.00, 0,   9, 255, 0.000
64013000, 5301503, 2016-11-10 15:00:00, 13.35740, 109.26700,   0,   9,   2, 26.28, 1014.00, 15.00, 1,   8, 255, 0.000
64013000, 5301503, 2016-11-10 16:00:00, 13.35740, 109.26720,   0,   9,   5, 25.26, 1014.00, 15.00, 0,   1, 255, 0.000
64013000, 5301503, 2016-11-10 17:00:00, 13.35740, 109.26720,   0,   9,   2, 24.72, 1014.00, 15.00, 0,   3, 255, 0.000
64013000, 5301503, 2016-11-10 18:00:00, 13.35740, 109.26700,   0,   9,   2, 24.48, 1013.60, 15.00, 1,  11, 255, 0.000
64013000, 5301503, 2016-11-10 19:00:00, 13.35740, 109.26720,   0,   8,   5, 24.45, 1012.80, 15.00, 1,  16, 255, 0.000
64013000, 5301503, 2016-11-10 20:00:00, 13.35740, 109.26720,   0,   8,   2, 24.57, 1012.30, 15.00, 1,   8, 255, 0.000
64013000, 5301503, 2016-11-10 21:00:00, 13.35740, 109.26720,   0,  11,   2, 24.81, 1012.30, 15.00, 1,   9, 255, 0.000
64013000, 5301503, 2016-11-10 22:00:00, 13.35740, 109.26720,   0,   8,   2, 24.93, 1012.40, 15.00, 0,   8, 255, 0.000
64013000, 5301503, 2016-11-10 23:00:00, 13.35740, 109.26720,   0,   9,   2, 24.77, 1013.10, 15.00, 2,   7, 255, 0.000
64013000, 5301503, 2016-11-11 00:00:00, 13.35740, 109.26700,   0,   9,   3, 24.83, 1013.80, 15.00, 1,   1, 255, 0.000
64013000, 5301503, 2016-11-11 01:00:00, 13.35740, 109.26720,   0,  10,   1, 25.95, 1014.40, 15.00, 1,  19, 255, 0.000
64013000, 5301503, 2016-11-11 02:00:00, 13.35740, 109.26700,   0,  10,   4, 26.61, 1014.80, 15.00, 1,  20, 255, 0.000
64013000, 5301503, 2016-11-11 03:00:00, 13.35740, 109.26700,   0,   9,   1, 27.39, 1014.80, 15.00, 1,  12, 255, 0.000
64013000, 5301503, 2016-11-11 04:00:00, 13.35740, 109.26720,   0,   9,   2, 27.92, 1014.10, 15.00, 1,   4, 255, 0.000
64013000, 5301503, 2016-11-11 05:00:00, 13.35740, 109.26720,   0,   9,   1, 28.42, 1013.00, 15.00, 0,   8, 255, 0.000
64013000, 5301503, 2016-11-11 06:00:00, 13.35740, 109.26700,   0,  10,   1, 28.38, 1011.80, 15.00, 1,   7, 255, 0.000
64013000, 5301503, 2016-11-11 07:00:00, 13.35740, 109.26700,   0,  10,   1, 28.31, 1011.20, 15.00, 1,   8, 255, 0.000
64015370, 5301502, 2016-11-08 00:00:00, 18.51280, 113.75780,   0,  11,   6, 27.51, 1015.10, 15.00, 5,  14, 255, 0.000
64015370, 5301502, 2016-11-08 01:00:00, 18.52080, 113.75900,   0,  10,   6, 27.53, 1015.60, 15.00, 7,   8, 255, 0.000
64015370, 5301502, 2016-11-08 02:00:00, 18.52880, 113.76140,   0,  10,   7, 27.54, 1015.90, 15.00, 5,   8, 255, 0.000
64015370, 5301502, 2016-11-08 03:00:00, 18.53500, 113.76360,   0,  11,   7, 27.57, 1015.60, 15.00, 6,   9, 255, 0.000
64015370, 5301502, 2016-11-08 04:00:00, 18.54080, 113.76700,   0,  10,   5, 27.59, 1015.00, 15.00, 6,  19, 255, 0.000
64015370, 5301502, 2016-11-08 05:00:00, 18.54600, 113.77060,   0,  10,   7, 27.64, 1014.20, 15.00, 5,  10, 255, 0.000
64015370, 5301502, 2016-11-08 06:00:00, 18.55000, 113.77460,   0,  11,   8, 27.66, 1013.50, 15.00, 7,  18, 255, 0.000
64015370, 5301502, 2016-11-08 07:00:00, 18.55220, 113.78000,   0,  11,   4, 27.65, 1013.30, 15.00, 6,  10, 255, 0.000
64015370, 5301502, 2016-11-08 08:00:00, 18.55220, 113.78000,  62,  11,  12, 27.64, 1013.20, 15.00, 6,  13, 255, 0.000
64015370, 5301502, 2016-11-08 09:00:00, 18.55720, 113.79140,   0,  11,   8, 27.63, 1013.60, 15.00, 5,  11, 255, 0.000
64015370, 5301502, 2016-11-08 10:00:00, 18.56060, 113.79260,   0,   9,  10, 27.62, 1014.20, 15.00, 6,  12, 255, 0.000
64015370, 5301502, 2016-11-08 11:00:00, 18.56280, 113.79340,   0,  11,   3, 27.60, 1014.60, 15.00, 6,   4, 255, 0.000
64015370, 5301502, 2016-11-08 12:00:00, 18.56320, 113.79500,   0,  12,  10, 27.59, 1015.30, 15.00, 5,  12, 255, 0.000
64015370, 5301502, 2016-11-08 13:00:00, 18.56200, 113.79640,   0,  10,   6, 27.55, 1015.90, 15.00, 6,   8, 255, 0.000
64015370, 5301502, 2016-11-08 14:00:00, 18.56020, 113.79420,   0,  11,   3, 27.54, 1015.90, 15.00, 5,  11, 255, 0.000
64015370, 5301502, 2016-11-08 15:00:00, 18.55800, 113.78820,   0,  10,   8, 27.55, 1016.00, 15.00, 8,   1, 255, 0.000
64015370, 5301502, 2016-11-08 16:00:00, 18.55680, 113.78120,   0,  11,   5, 27.53, 1015.50, 15.00, 4,  12, 255, 0.000
64015370, 5301502, 2016-11-08 17:00:00, 18.55580, 113.77760,   0,  12,   7, 27.53, 1015.10, 15.00, 8,  17, 255, 0.000
64015370, 5301502, 2016-11-08 18:00:00, 18.55460, 113.77460,   0,  11,  10, 27.53, 1014.40, 15.00, 7,   8, 255, 0.000
64015370, 5301502, 2016-11-08 19:00:00, 18.55460, 113.77460,  60,  11,  12, 27.49, 1014.00, 15.00, 5,  11, 255, 0.000
64015370, 5301502, 2016-11-08 20:00:00, 18.55220, 113.76640,   0,  11,   4, 27.49, 1013.90, 15.00, 7,   9, 255, 0.000
64015370, 5301502, 2016-11-08 21:00:00, 18.55200, 113.76080,   0,  11,   6, 27.48, 1013.70, 15.00, 11,  16, 255, 0.000
64015370, 5301502, 2016-11-08 22:00:00, 18.55200, 113.76080,  61,  11,  12, 27.50, 1014.40, 15.00, 9,  10, 255, 0.000
64015370, 5301502, 2016-11-08 23:00:00, 18.55200, 113.76080, 121,  10,  12, 27.48, 1014.90, 15.00, 8,  12, 255, 0.000
64015370, 5301502, 2016-11-09 00:00:00, 18.55200, 113.76080, 181,  10,  12, 27.48, 1015.40, 15.00, 7,  15, 255, 0.000
64015370, 5301502, 2016-11-09 01:00:00, 18.55800, 113.74240,   0,  10,   4, 27.50, 1016.00, 15.00, 8,  13, 255, 0.000
64015370, 5301502, 2016-11-09 02:00:00, 18.55800, 113.74240,  62,  10,  12, 27.50, 1016.20, 15.00, 7,  15, 255, 0.000
64015370, 5301502, 2016-11-09 03:00:00, 18.55800, 113.74240, 122,  11,  12, 27.53, 1015.90, 15.00, 7,   9, 255, 0.000
64015370, 5301502, 2016-11-09 04:00:00, 18.55800, 113.74240, 182,  10,  12, 27.55, 1015.40, 15.00, 5,   9, 255, 0.000
64015370, 5301502, 2016-11-09 05:00:00, 18.56980, 113.73240,   0,  11,   9, 27.56, 1014.70, 15.00, 7,  18, 255, 0.000
64015370, 5301502, 2016-11-09 06:00:00, 18.57360, 113.72760,   0,  11,   5, 27.58, 1014.20, 15.00, 5,  11, 255, 0.000
64015370, 5301502, 2016-11-09 07:00:00, 18.57900, 113.72280,   0,  11,   5, 27.57, 1013.50, 15.00, 8,   8, 255, 0.000
64015370, 5301502, 2016-11-09 08:00:00, 18.57900, 113.72280,  62,  10,  12, 27.56, 1013.40, 15.00, 5,  10, 255, 0.000
64015370, 5301502, 2016-11-09 09:00:00, 18.58820, 113.71520,   0,  10,   8, 27.52, 1013.80, 15.00, 9,  11, 255, 0.000
64015370, 5301502, 2016-11-09 10:00:00, 18.59280, 113.71240,   0,  10,  10, 27.52, 1014.10, 15.00, 7,  11, 255, 0.000
64015370, 5301502, 2016-11-09 11:00:00, 18.59760, 113.70740,   0,  12,   9, 27.50, 1014.70, 15.00, 7,  23, 255, 0.000
64015370, 5301502, 2016-11-09 12:00:00, 18.59760, 113.70740,  60,  12,  12, 27.48, 1015.20, 15.00, 6,  15, 255, 0.000
64015370, 5301502, 2016-11-09 13:00:00, 18.59760, 113.70740, 120,  11,  12, 27.49, 1015.90, 15.00, 9,   9, 255, 0.000
64015370, 5301502, 2016-11-09 14:00:00, 18.61200, 113.68860,   0,  10,   5, 27.49, 1016.30, 15.00, 8,  11, 255, 0.000
64015370, 5301502, 2016-11-09 15:00:00, 18.61440, 113.68520,   0,  10,   7, 27.47, 1016.20, 15.00, 6,  10, 255, 0.000
64015370, 5301502, 2016-11-09 16:00:00, 18.61520, 113.68260,   0,  10,   9, 27.49, 1015.70, 15.00, 5,  14, 255, 0.000
64015370, 5301502, 2016-11-09 17:00:00, 18.61560, 113.67720,   0,  11,   8, 27.47, 1015.20, 15.00, 7,  24, 255, 0.000
64015370, 5301502, 2016-11-09 18:00:00, 18.61780, 113.66880,   0,  11,   7, 27.45, 1014.70, 15.00, 7,  24, 255, 0.000
64015370, 5301502, 2016-11-09 19:00:00, 18.61780, 113.66880,  61,  10,  12, 27.42, 1014.40, 15.00, 7,  10, 255, 0.000
64015370, 5301502, 2016-11-09 20:00:00, 18.61780, 113.66880, 121,  11,  12, 27.43, 1014.20, 15.00, 6,  10, 255, 0.000
64015370, 5301502, 2016-11-09 21:00:00, 18.62100, 113.65540,   0,  11,  10, 27.45, 1014.30, 15.00, 6,  13, 255, 0.000
64015370, 5301502, 2016-11-09 22:00:00, 18.62100, 113.65540,  60,  10,  12, 27.43, 1014.80, 15.00, 6,  20, 255, 0.000
64015370, 5301502, 2016-11-09 23:00:00, 18.62100, 113.65540, 120,   9,  12, 27.43, 1015.20, 15.00, 8,   9, 255, 0.000
64015370, 5301502, 2016-11-10 00:00:00, 18.62440, 113.64300,   0,  11,   5, 27.44, 1015.90, 15.00, 7,  12, 255, 0.000
64015370, 5301502, 2016-11-10 01:00:00, 18.62640, 113.63720,   0,  11,   7, 27.44, 1016.40, 15.00, 6,  12, 255, 0.000
64015370, 5301502, 2016-11-10 02:00:00, 18.62940, 113.63320,   0,  10,   5, 27.47, 1016.80, 15.00, 8,   8, 255, 0.000
64015370, 5301502, 2016-11-10 03:00:00, 18.63220, 113.63160,   0,  10,  10, 27.50, 1016.60, 15.00, 11,  11, 255, 0.000
64015370, 5301502, 2016-11-10 04:00:00, 18.63580, 113.63140,   0,  11,   7, 27.49, 1016.30, 15.00, 7,  12, 255, 0.000
64015370, 5301502, 2016-11-10 05:00:00, 18.63960, 113.63080,   0,  11,   8, 27.50, 1015.50, 15.00, 9,  10, 255, 0.000
64015370, 5301502, 2016-11-10 06:00:00, 18.64280, 113.62940,   0,  11,   7, 27.51, 1014.40, 15.00, 6,   8, 255, 0.000
64015370, 5301502, 2016-11-10 07:00:00, 18.64280, 113.62940,  61,  11,  12, 27.50, 1014.00, 15.00, 8,  14, 255, 0.000
64015370, 5301502, 2016-11-10 08:00:00, 18.64660, 113.62960,   0,  12,   6, 27.50, 1013.70, 15.00, 5,  12, 255, 0.000
64015370, 5301502, 2016-11-10 09:00:00, 18.64640, 113.62680,   0,  11,   9, 27.50, 1013.70, 15.00, 8,  11, 255, 0.000
64015370, 5301502, 2016-11-10 10:00:00, 18.64640, 113.62680,  60,  10,  12, 27.49, 1014.20, 15.00, 8,   9, 255, 0.000
64015370, 5301502, 2016-11-10 11:00:00, 18.64300, 113.62020,   0,  11,   7, 27.47, 1014.70, 15.00, 7,  10, 255, 0.000
64015370, 5301502, 2016-11-10 12:00:00, 18.64040, 113.61800,   0,  12,   7, 27.47, 1015.40, 15.00, 9,  17, 255, 0.000
64015370, 5301502, 2016-11-10 13:00:00, 18.63780, 113.61360,   0,  12,   6, 27.45, 1016.00, 15.00, 6,   8, 255, 0.000
64015370, 5301502, 2016-11-10 14:00:00, 18.63540, 113.60600,   0,  11,   6, 27.47, 1016.30, 15.00, 7,   9, 255, 0.000
64015370, 5301502, 2016-11-10 15:00:00, 18.63340, 113.59640,   0,  11,  11, 27.45, 1016.30, 15.00, 6,  13, 255, 0.000
64015370, 5301502, 2016-11-10 16:00:00, 18.63180, 113.58800,   0,   9,   9, 27.44, 1015.80, 15.00, 11,  11, 255, 0.000
64015370, 5301502, 2016-11-10 17:00:00, 18.63180, 113.57680,   0,  11,   9, 27.41, 1015.30, 15.00, 6,  13, 255, 0.000
64015370, 5301502, 2016-11-10 18:00:00, 18.63140, 113.56540,   0,  11,   9, 27.43, 1014.80, 15.00, 6,  12, 255, 0.000
64015370, 5301502, 2016-11-10 19:00:00, 18.63280, 113.55320,   0,  10,   6, 27.41, 1014.30, 15.00, 8,  11, 255, 0.000
64015370, 5301502, 2016-11-10 20:00:00, 18.63620, 113.53860,   0,  11,   9, 27.40, 1014.10, 15.00, 7,   9, 255, 0.000
64015370, 5301502, 2016-11-10 21:00:00, 18.64080, 113.52540,   0,  11,   8, 27.40, 1014.10, 15.00, 8,  19, 255, 0.000
64015370, 5301502, 2016-11-10 22:00:00, 18.64480, 113.51420,   0,  11,  10, 27.40, 1014.50, 15.00, 6,   9, 255, 0.000
64015370, 5301502, 2016-11-10 23:00:00, 18.64900, 113.50520,   0,  10,   5, 27.39, 1015.20, 15.00, 7,  11, 255, 0.000
64015370, 5301502, 2016-11-11 00:00:00, 18.65420, 113.49900,   0,  11,   8, 27.39, 1015.80, 15.00, 6,  12, 255, 0.000
64015370, 5301502, 2016-11-11 01:00:00, 18.65420, 113.49900,  60,  10,  12, 27.41, 1016.40, 15.00, 7,  11, 255, 0.000
64015370, 5301502, 2016-11-11 02:00:00, 18.66620, 113.48580,   0,  10,   9, 27.42, 1017.00, 15.00, 6,   9, 255, 0.000
64015370, 5301502, 2016-11-11 03:00:00, 18.67420, 113.47920,   0,  11,   8, 27.43, 1016.80, 15.00, 12,   9, 255, 0.000
64015370, 5301502, 2016-11-11 04:00:00, 18.68180, 113.47280,   0,  10,   7, 27.45, 1016.00, 15.00, 6,  14, 255, 0.000
64015370, 5301502, 2016-11-11 05:00:00, 18.68180, 113.47280,  61,  11,  12, 27.47, 1015.10, 15.00, 11,  14, 255, 0.000
64015370, 5301502, 2016-11-11 06:00:00, 18.69900, 113.46820,   0,  11,   4, 27.49, 1014.30, 15.00, 7,  11, 255, 0.000
64015370, 5301502, 2016-11-11 07:00:00, 18.70600, 113.46940,   0,  10,   7, 27.49, 1013.70, 15.00, 8,  11, 255, 0.000
